Location: Aldenham
(51.6667°N, 0.3500°W)
Time: 06:52:41
(UTC+00:00)

Cosmos 1627 Rocket - Pass Details

Date: 18 November 2025
Orbit: 949 x 1003 km, 82.9° (Epoch: 10 December)

Event Time Altitude Azimuth Distance (km) Brightness Sun altitude
Rises 18:44:41 0° 349° (N) 3,636 7.6 -24.0°
Reaches altitude 10° 18:47:11 10° 350° (N) 2,688 6.9 -24.4°
Maximum altitude 18:53:21 89° 75° (ENE) 963 4.3 -25.4°
Drops below altitude 10° 18:59:31 10° 172° (S) 2,693 6.7 -26.3°
Sets 19:02:01 0° 172° (S) 3,642 7.4 -26.7°
